QPF
0.00 0.01 0.05 0.05 0.03 0.02 0.01 0.01 0.01 0.01 0.01 0.02 0.03 0.12 0.14 0.09 0.31 0.18 0.11 0.05 0.01 0.01 0.00 0.00 0.00 0.00 0.00 0.00 0.00 0.00 0.00 0.00 0.00 0.00 0.00 0.00 0.00 0.00 0.00 0.00 0.00 0.00 0.00
0.04 0.06 0.07 0.07 0.07 0.03 0.02 0.01 0.01 0.01 0.02 0.03 0.02 0.05 0.11 0.19 0.34 0.44 0.26 0.27 0.12 0.02 0.00 0.00 0.00 0.00 0.00 0.00 0.00 0.01 0.00 0.00 0.00 0.00 0.00 0.00 0.00 0.00 0.00 0.00 0.00 0.00 0.00
0.02 0.01 0.05 0.09 0.07 0.05 0.01 0.01 0.01 0.03 0.09 0.09 0.05 0.04 0.07 0.11 0.35 0.61 0.44 0.38 0.41 0.32 0.19 0.12 0.05 0.01 0.02 0.03 0.03 0.07 0.07 0.08 0.05 0.01 0.00 0.00 0.00 0.00 0.00 0.00 0.00 0.00 0.00
0.00 0.03 0.11 0.07 0.07 0.04 0.01 0.00 0.10 0.25 0.14 0.08 0.35 0.27 0.09 0.07 0.07 0.29 0.32 0.28 0.31 0.31 0.29 0.28 0.24 0.21 0.18 0.16 0.14 0.10 0.10 0.11 0.11 0.11 0.07 0.04 0.02 0.01 0.01 0.01 0.01 0.01 0.00
0.01 0.01 0.10 0.11 0.03 0.02 0.00 0.02 0.05 0.39 0.60 0.27 0.62 0.60 0.40 0.19 0.11 0.13 0.19 0.18 0.22 0.26 0.28 0.19 0.15 0.13 0.15 0.16 0.14 0.09 0.07 0.03 0.01 0.01 0.02 0.04 0.04 0.04 0.03 0.05 0.06 0.05 0.03
0.02 0.02 0.03 0.03 0.01 0.00 0.01 0.05 0.11 0.29 0.75 0.56 0.59 0.46 0.42 0.44 0.27 0.19 0.22 0.22 0.18 0.20 0.22 0.16 0.10 0.11 0.15 0.13 0.12 0.13 0.07 0.03 0.01 0.00 0.00 0.00 0.00 0.00 0.02 0.05 0.07 0.09 0.07
0.08 0.14 0.10 0.14 0.10 0.08 0.09 0.12 0.15 0.24 0.29 0.31 0.27 0.21 0.18 0.22 0.28 0.18 0.14 0.15 0.14 0.11 0.09 0.08 0.06 0.04 0.06 0.08 0.07 0.06 0.06 0.05 0.02 0.01 0.01 0.02 0.01 0.00 0.00 0.01 0.03 0.07 0.07
0.28 0.19 0.16 0.19 0.22 0.15 0.10 0.08 0.12 0.12 0.08 0.08 0.14 0.15 0.15 0.17 0.18 0.15 0.12 0.09 0.06 0.04 0.04 0.02 0.01 0.02 0.02 0.02 0.02 0.02 0.02 0.02 0.01 0.03 0.05 0.07 0.05 0.04 0.03 0.06 0.10 0.11 0.10
0.36 0.25 0.16 0.18 0.16 0.06 0.03 0.02 0.03 0.02 0.01 0.00 0.01 0.00 0.02 0.04 0.05 0.06 0.06 0.07 0.11 0.11 0.12 0.07 0.06 0.09 0.07 0.04 0.02 0.01 0.02 0.02 0.01 0.01 0.03 0.06 0.12 0.12 0.03 0.02 0.06 0.13 0.08
0.23 0.21 0.14 0.15 0.07 0.01 0.00 0.00 0.00 0.00 0.00 0.00 0.00 0.00 0.00 0.00 0.02 0.03 0.03 0.02 0.06 0.08 0.06 0.07 0.11 0.14 0.13 0.08 0.06 0.05 0.06 0.04 0.02 0.03 0.03 0.06 0.10 0.12 0.06 0.08 0.09 0.02 0.00
0.17 0.10 0.09 0.06 0.03 0.00 0.00 0.00 0.00 0.00 0.00 0.00 0.00 0.00 0.00 0.00 0.00 0.00 0.00 0.00 0.00 0.00 0.00 0.00 0.00 0.00 0.01 0.01 0.00 0.01 0.01 0.01 0.02 0.03 0.02 0.05 0.20 0.27 0.13 0.08 0.07 0.02 0.00
0.03 0.02 0.01 0.00 0.00 0.00 0.00 0.00 0.00 0.00 0.00 0.00 0.00 0.00 0.00 0.00 0.00 0.00 0.00 0.00 0.00 0.00 0.00 0.00 0.00 0.00 0.00 0.00 0.00 0.00 0.01 0.01 0.02 0.03 0.03 0.02 0.06 0.14 0.16 0.05 0.01 0.00 0.00
0.00 0.00 0.00 0.00 0.00 0.00 0.00 0.00 0.00 0.00 0.00 0.00 0.00 0.00 0.00 0.00 0.00 0.00 0.00 0.00 0.00 0.00 0.00 0.00 0.00 0.00 0.00 0.00 0.00 0.00 0.00 0.00 0.00 0.02 0.03 0.06 0.05 0.05 0.04 0.02 0.00 0.00 0.00
0.00 0.00 0.00 0.00 0.00 0.00 0.00 0.00 0.00 0.00 0.00 0.00 0.00 0.00 0.00 0.00 0.00 0.00 0.00 0.00 0.00 0.00 0.00 0.00 0.00 0.00 0.00 0.00 0.00 0.00 0.01 0.00 0.01 0.03 0.03 0.05 0.04 0.04 0.06 0.02 0.00 0.00 0.00
0.00 0.00 0.00 0.00 0.00 0.00 0.00 0.00 0.00 0.00 0.00 0.00 0.00 0.00 0.00 0.00 0.00 0.00 0.00 0.00 0.00 0.00 0.00 0.00 0.00 0.00 0.00 0.00 0.00 0.00 0.00 0.01 0.00 0.01 0.02 0.03 0.04 0.04 0.05 0.01 0.00 0.00 0.00
0.00 0.00 0.00 0.00 0.00 0.00 0.00 0.00 0.00 0.00 0.00 0.00 0.00 0.00 0.00 0.00 0.00 0.00 0.00 0.00 0.00 0.00 0.00 0.00 0.00 0.00 0.00 0.00 0.00 0.00 0.00 0.00 0.00 0.00 0.02 0.03 0.05 0.03 0.02 0.01 0.00 0.00 0.00
0.00 0.00 0.00 0.00 0.00 0.00 0.00 0.00 0.00 0.00 0.00 0.00 0.00 0.00 0.00 0.00 0.00 0.00 0.00 0.00 0.00 0.00 0.00 0.00 0.00 0.00 0.00 0.00 0.00 0.00 0.00 0.00 0.00 0.00 0.00 0.00 0.00 0.00 0.02 0.04 0.04 0.02 0.01
0.00 0.00 0.00 0.00 0.00 0.00 0.00 0.00 0.00 0.00 0.00 0.00 0.00 0.00 0.00 0.00 0.00 0.00 0.00 0.00 0.00 0.00 0.00 0.00 0.00 0.00 0.00 0.00 0.00 0.00 0.00 0.00 0.00 0.00 0.00 0.00 0.00 0.00 0.00 0.00 0.01 0.01 0.01
0.00 0.00 0.00 0.00 0.00 0.00 0.00 0.00 0.00 0.00 0.00 0.00 0.00 0.00 0.00 0.00 0.00 0.00 0.00 0.00 0.00 0.00 0.00 0.00 0.00 0.00 0.00 0.00 0.00 0.00 0.00 0.00 0.00 0.00 0.00 0.00 0.00 0.00 0.00 0.00 0.00 0.00 0.00
0.00 0.00 0.00 0.00 0.00 0.00 0.00 0.00 0.00 0.00 0.00 0.00 0.00 0.00 0.00 0.00 0.00 0.00 0.00 0.00 0.00 0.00 0.00 0.00 0.00 0.00 0.00 0.00 0.00 0.00 0.00 0.00 0.00 0.00 0.00 0.00 0.00 0.00 0.00 0.00 0.00 0.00 0.00
0.00 0.00 0.00 0.00 0.00 0.00 0.00 0.00 0.00 0.00 0.00 0.00 0.00 0.00 0.00 0.00 0.00 0.00 0.00 0.00 0.00 0.00 0.00 0.00 0.00 0.00 0.00 0.00 0.00 0.00 0.00 0.00 0.00 0.00 0.00 0.00 0.00 0.00 0.00 0.00 0.00 0.00 0.00
0.00 0.00 0.00 0.00 0.00 0.00 0.00 0.00 0.00 0.00 0.00 0.00 0.00 0.00 0.00 0.00 0.00 0.00 0.00 0.00 0.00 0.00 0.00 0.00 0.00 0.00 0.00 0.00 0.00 0.00 0.00 0.01 0.00 0.00 0.00 0.00 0.01 0.01 0.00 0.00 0.00 0.00 0.00
0.00 0.00 0.00 0.00 0.00 0.00 0.00 0.00 0.00 0.00 0.00 0.00 0.00 0.00 0.00 0.00 0.00 0.00 0.00 0.00 0.00 0.00 0.00 0.00 0.00 0.00 0.00 0.00 0.00 0.00 0.00 0.00 0.00 0.00 0.01 0.01 0.02 0.02 0.01 0.01 0.01 0.00 0.00
0.00 0.00 0.00 0.00 0.00 0.00 0.00 0.00 0.00 0.00 0.00 0.00 0.00 0.00 0.00 0.00 0.00 0.00 0.00 0.00 0.00 0.00 0.00 0.00 0.00 0.00 0.00 0.00 0.00 0.00 0.00 0.00 0.00 0.01 0.02 0.02 0.02 0.03 0.03 0.04 0.03 0.01 0.00
0.00 0.00 0.00 0.00 0.00 0.00 0.00 0.00 0.00 0.00 0.00 0.00 0.00 0.00 0.00 0.00 0.00 0.00 0.00 0.00 0.00 0.00 0.00 0.00 0.00 0.00 0.00 0.00 0.00 0.00 0.00 0.00 0.00 0.01 0.01 0.02 0.04 0.05 0.06 0.04 0.03 0.04 0.02
0.00 0.00 0.00 0.00 0.00 0.00 0.00 0.00 0.00 0.00 0.00 0.00 0.00 0.00 0.00 0.00 0.00 0.00 0.00 0.00 0.00 0.00 0.00 0.00 0.00 0.00 0.00 0.00 0.00 0.00 0.00 0.00 0.00 0.01 0.01 0.01 0.02 0.04 0.04 0.07 0.08 0.07 0.05
MSLP
1009.21 1009.27 1009.32 1009.06 1009.29 1009.20 1009.78 1009.67 1009.73 1009.79 1009.93 1010.23 1010.30 1010.22 1009.52 1009.87 1009.54 1008.94 1010.24 1010.75 1010.63 1011.27 1011.88 1012.60 1013.07 1013.29 1013.80 1014.06 1014.40 1014.91 1015.30 1015.69 1015.71 1016.12 1016.21 1016.24 1016.05 1015.98 1015.88 1015.75 1015.86 1016.19 1016.48
1009.44 1009.68 1009.62 1009.68 1009.69 1009.70 1010.12 1009.95 1009.75 1009.89 1009.93 1009.50 1009.66 1009.75 1009.31 1009.40 1009.27 1009.01 1009.78 1010.40 1010.43 1010.87 1011.46 1011.99 1012.64 1013.07 1013.26 1013.78 1014.04 1014.36 1014.84 1015.26 1015.39 1015.81 1016.26 1016.46 1016.31 1016.04 1015.97 1015.99 1016.05 1016.23 1016.29
1009.65 1009.52 1009.82 1010.25 1010.59 1010.78 1010.41 1010.02 1009.69 1009.69 1009.55 1009.03 1009.02 1009.25 1009.26 1009.40 1008.87 1008.98 1009.97 1010.39 1010.54 1010.72 1011.34 1011.68 1012.30 1012.63 1012.91 1013.45 1013.61 1013.86 1014.25 1014.85 1015.16 1015.17 1015.48 1016.16 1016.16 1016.15 1016.36 1016.20 1016.29 1016.61 1016.67
1010.27 1010.24 1010.23 1010.58 1011.34 1011.23 1010.65 1010.10 1009.72 1009.56 1009.17 1009.15 1008.87 1009.25 1009.27 1009.23 1009.34 1008.78 1009.75 1010.61 1010.85 1011.26 1011.74 1012.12 1012.34 1012.60 1012.75 1013.05 1013.47 1013.68 1013.85 1014.22 1014.87 1015.23 1015.06 1015.00 1015.26 1016.16 1016.33 1016.22 1016.68 1016.68 1017.04
1011.14 1011.19 1011.13 1009.97 1011.61 1011.25 1010.76 1010.41 1009.89 1009.71 1008.75 1008.37 1009.49 1008.97 1008.91 1009.20 1009.28 1009.39 1010.21 1010.51 1010.99 1011.16 1011.67 1012.03 1012.42 1012.78 1013.23 1013.51 1013.85 1014.03 1014.04 1014.18 1014.25 1014.28 1014.50 1015.06 1015.12 1015.04 1015.42 1016.31 1016.25 1016.39 1016.28
1011.94 1011.97 1011.94 1011.77 1011.91 1011.53 1011.09 1010.76 1010.50 1010.23 1009.63 1008.89 1009.36 1009.21 1009.08 1009.36 1009.79 1010.04 1010.08 1010.76 1011.34 1011.43 1012.02 1012.19 1012.56 1012.91 1012.84 1013.22 1013.36 1013.66 1013.78 1013.73 1013.93 1013.90 1014.29 1014.64 1015.00 1015.11 1014.91 1015.29 1015.72 1015.09 1015.55
1012.91 1012.98 1012.60 1012.60 1011.95 1011.85 1011.86 1011.34 1011.16 1010.68 1010.80 1010.44 1010.43 1010.20 1009.75 1010.22 1010.38 1010.65 1010.91 1011.04 1011.40 1011.70 1011.94 1012.26 1012.63 1012.61 1012.79 1012.85 1012.88 1013.06 1013.07 1013.35 1013.49 1013.66 1013.79 1013.86 1013.98 1014.11 1014.21 1014.67 1015.01 1015.14 1015.77
1013.91 1013.63 1013.12 1012.93 1012.87 1012.90 1012.52 1012.40 1011.86 1012.03 1012.20 1011.62 1011.37 1010.79 1011.10 1010.75 1011.21 1011.09 1010.87 1011.09 1011.37 1011.44 1011.81 1011.84 1012.08 1012.03 1012.14 1012.47 1012.57 1012.75 1013.06 1013.35 1013.19 1012.97 1013.27 1013.40 1013.50 1013.69 1013.65 1013.77 1014.39 1015.07 1015.11
1014.84 1014.60 1014.39 1014.28 1013.97 1013.69 1013.39 1013.33 1013.27 1013.13 1012.83 1012.75 1012.45 1012.23 1011.87 1011.63 1011.38 1011.32 1011.63 1011.74 1011.45 1011.45 1011.61 1011.90 1011.94 1011.77 1011.81 1011.93 1012.32 1012.34 1012.56 1012.81 1012.69 1012.33 1012.84 1012.91 1013.02 1012.92 1013.31 1013.58 1013.72 1014.14 1014.56
1015.69 1015.29 1015.09 1014.93 1014.73 1014.60 1014.24 1014.04 1013.81 1013.71 1013.55 1013.44 1013.20 1013.22 1013.24 1012.74 1011.91 1011.79 1012.12 1011.83 1011.68 1011.55 1011.65 1011.69 1011.63 1011.43 1011.14 1011.08 1011.45 1011.54 1011.79 1012.00 1012.13 1012.12 1012.24 1012.55 1012.41 1012.74 1012.92 1013.24 1013.50 1013.78 1014.38
1016.06 1015.93 1015.73 1015.50 1015.16 1015.07 1014.95 1014.76 1014.50 1014.37 1014.15 1014.23 1014.23 1014.03 1013.71 1013.47 1013.08 1013.16 1012.96 1012.52 1012.39 1012.62 1012.57 1012.12 1012.15 1011.85 1011.66 1011.59 1011.45 1011.38 1011.57 1011.70 1011.79 1011.59 1011.65 1011.80 1012.01 1012.19 1012.23 1012.85 1012.95 1013.66 1013.95
1016.17 1016.03 1015.94 1015.93 1015.88 1015.88 1015.68 1015.33 1015.05 1014.94 1014.85 1014.70 1014.62 1014.34 1014.41 1014.46 1013.97 1013.71 1013.05 1013.21 1013.50 1013.16 1013.08 1012.62 1012.51 1012.22 1011.93 1011.67 1011.45 1011.48 1011.49 1011.66 1011.51 1011.33 1011.28 1011.15 1011.53 1011.81 1012.03 1012.07 1012.80 1013.47 1013.82
1016.36 1016.44 1016.56 1016.59 1016.45 1016.32 1016.22 1016.15 1015.94 1015.66 1015.36 1014.93 1014.96 1014.83 1014.67 1014.70 1014.69 1014.40 1013.88 1013.82 1013.82 1013.59 1013.10 1013.11 1013.00 1012.67 1012.20 1012.24 1011.60 1011.46 1011.47 1011.21 1011.14 1010.95 1011.09 1010.85 1011.12 1011.35 1011.67 1011.84 1012.50 1013.14 1013.62
1016.65 1016.85 1016.97 1017.10 1017.02 1016.88 1016.74 1016.58 1016.44 1016.22 1016.07 1016.10 1015.96 1015.85 1015.70 1015.43 1015.06 1014.62 1014.63 1014.34 1014.04 1013.81 1013.57 1013.31 1012.92 1012.24 1012.22 1012.14 1011.75 1011.39 1011.10 1010.81 1010.79 1010.74 1010.50 1010.75 1010.65 1010.91 1011.31 1011.71 1012.23 1012.83 1013.51
1016.83 1016.86 1017.26 1017.35 1017.18 1017.25 1017.30 1017.19 1016.90 1016.50 1016.47 1016.30 1016.12 1016.21 1016.01 1015.44 1014.95 1015.15 1014.98 1014.48 1014.17 1014.20 1013.90 1013.63 1013.01 1012.39 1011.89 1011.73 1011.53 1011.44 1010.93 1010.90 1010.91 1010.53 1010.59 1010.46 1010.53 1010.72 1011.07 1011.57 1011.65 1012.45 1013.35
1017.06 1017.32 1017.25 1017.45 1017.55 1017.56 1017.40 1017.21 1017.15 1016.91 1016.55 1016.25 1016.13 1016.01 1015.69 1015.76 1015.61 1015.32 1014.94 1014.84 1014.68 1014.42 1014.14 1013.84 1013.46 1013.02 1012.64 1012.05 1011.71 1011.34 1011.15 1010.68 1010.67 1010.67 1010.67 1010.53 1010.62 1010.80 1010.85 1011.23 1011.28 1011.91 1012.50
1017.05 1017.25 1017.49 1017.58 1017.97 1017.87 1017.63 1017.62 1017.61 1017.30 1017.18 1016.73 1016.46 1016.43 1016.19 1016.04 1015.81 1015.42 1015.14 1014.92 1014.93 1014.79 1014.31 1013.92 1013.57 1013.22 1012.86 1012.32 1011.95 1011.55 1011.13 1010.69 1010.59 1010.47 1010.63 1010.67 1010.58 1010.64 1010.82 1010.90 1011.01 1011.52 1011.96
1017.07 1017.43 1017.65 1017.74 1017.58 1017.65 1017.60 1017.70 1017.74 1017.73 1017.43 1017.25 1017.07 1017.03 1016.96 1016.75 1016.49 1016.14 1015.86 1015.46 1015.07 1014.49 1014.32 1014.09 1013.74 1013.46 1012.80 1012.32 1012.01 1011.52 1011.10 1010.86 1010.44 1010.22 1010.47 1010.64 1010.64 1010.59 1010.51 1010.62 1011.23 1011.47 1011.59
1017.14 1017.44 1017.63 1017.80 1017.88 1017.81 1017.75 1017.95 1018.10 1018.05 1017.88 1017.70 1017.53 1017.38 1017.26 1017.15 1017.07 1016.66 1016.34 1015.87 1015.67 1015.29 1014.82 1014.40 1014.02 1013.71 1012.89 1012.32 1011.94 1011.39 1011.21 1010.53 1010.39 1010.11 1010.05 1010.25 1010.33 1010.36 1010.59 1010.75 1011.16 1011.40 1011.56
1017.09 1017.21 1017.41 1017.59 1017.79 1017.91 1018.08 1018.16 1018.13 1018.01 1017.84 1017.68 1017.44 1017.15 1016.94 1017.03 1016.97 1016.75 1016.33 1015.85 1015.57 1015.18 1014.65 1014.38 1013.83 1013.68 1013.18 1012.51 1011.80 1011.25 1010.74 1010.36 1010.07 1009.87 1009.48 1009.62 1009.77 1009.99 1010.20 1010.69 1010.93 1011.18 1011.92
1017.16 1017.40 1017.68 1017.97 1018.01 1017.91 1017.86 1017.89 1017.82 1017.80 1017.42 1017.10 1016.92 1016.90 1016.83 1016.83 1016.64 1016.42 1016.07 1015.74 1015.40 1014.92 1014.51 1014.05 1013.54 1013.12 1012.62 1012.11 1011.55 1011.20 1010.50 1010.15 1009.81 1009.59 1009.44 1009.19 1009.14 1009.19 1009.59 1009.75 1010.18 1010.58 1011.34
1017.40 1017.50 1017.80 1017.96 1017.97 1017.92 1017.81 1017.69 1017.60 1017.21 1017.03 1016.94 1016.89 1016.77 1016.61 1016.47 1016.19 1016.11 1015.88 1015.57 1015.31 1014.94 1014.48 1014.04 1013.37 1012.64 1012.06 1011.74 1011.31 1010.93 1010.54 1009.96 1009.51 1009.27 1008.96 1008.43 1008.40 1008.36 1008.66 1009.02 1009.35 1010.16 1010.59
1017.75 1017.84 1018.05 1018.07 1017.96 1017.86 1017.83 1017.95 1017.56 1017.39 1017.18 1016.99 1016.72 1016.41 1016.01 1015.77 1015.61 1015.59 1015.41 1015.24 1014.97 1014.62 1014.16 1013.72 1013.15 1012.53 1011.83 1011.44 1011.09 1010.51 1010.00 1009.59 1009.31 1009.00 1008.76 1008.28 1007.82 1007.67 1008.00 1008.21 1008.76 1009.17 1009.98
1018.17 1018.32 1018.47 1018.49 1018.33 1018.02 1017.92 1017.90 1017.64 1017.29 1017.16 1016.95 1016.67 1016.41 1016.14 1015.68 1015.23 1015.10 1014.98 1014.71 1014.40 1014.09 1013.63 1013.29 1012.79 1012.14 1011.63 1011.31 1010.89 1010.48 1009.98 1009.56 1008.95 1008.51 1008.27 1007.95 1007.27 1007.20 1007.37 1007.67 1007.95 1008.51 1009.14
1018.57 1018.68 1018.85 1018.87 1018.73 1018.39 1018.13 1017.80 1017.42 1017.15 1016.97 1016.70 1016.38 1016.03 1015.74 1015.44 1015.08 1014.75 1014.47 1013.98 1013.63 1013.36 1012.79 1012.39 1012.12 1011.81 1011.37 1011.00 1010.47 1009.94 1009.48 1009.19 1008.85 1008.31 1007.96 1007.50 1007.25 1006.98 1007.02 1007.27 1007.59 1007.94 1008.59
1018.71 1018.81 1018.88 1018.91 1018.65 1018.37 1018.06 1017.67 1017.17 1016.86 1016.63 1016.41 1016.09 1015.74 1015.40 1015.11 1014.81 1014.39 1013.59 1013.32 1012.92 1012.39 1011.95 1011.55 1011.22 1010.80 1010.44 1009.99 1009.73 1009.47 1009.07 1008.74 1008.53 1007.97 1007.66 1007.30 1006.97 1006.85 1006.91 1007.08 1007.30 1007.58 1008.18
Thickness
5576 5583 5588 5596 5598 5602 5602 5608 5613 5617 5620 5619 5620 5621 5633 5639 5646 5659 5651 5647 5654 5654 5654 5654 5653 5656 5657 5660 5661 5657 5657 5655 5657 5654 5655 5657 5661 5660 5662 5664 5665 5662 5660
5565 5571 5578 5584 5588 5592 5593 5599 5607 5609 5613 5618 5618 5619 5627 5638 5641 5648 5646 5643 5648 5648 5647 5648 5645 5647 5651 5651 5653 5653 5650 5648 5649 5645 5643 5640 5645 5648 5648 5651 5653 5652 5651
5559 5567 5571 5571 5573 5574 5582 5592 5603 5608 5612 5619 5620 5618 5619 5629 5636 5640 5637 5638 5638 5640 5639 5641 5640 5641 5644 5642 5643 5644 5643 5640 5638 5640 5638 5627 5629 5632 5633 5636 5639 5636 5636
5552 5559 5564 5565 5562 5567 5575 5587 5598 5604 5609 5612 5617 5613 5615 5623 5624 5638 5634 5630 5630 5630 5628 5628 5632 5633 5636 5635 5634 5634 5635 5633 5630 5629 5633 5634 5633 5623 5624 5628 5625 5626 5623
5547 5550 5553 5567 5556 5563 5569 5581 5592 5597 5606 5612 5603 5611 5614 5618 5622 5627 5624 5626 5624 5626 5623 5623 5624 5625 5623 5623 5623 5624 5625 5625 5627 5631 5630 5627 5628 5630 5627 5619 5620 5620 5621
5542 5543 5546 5551 5552 5557 5566 5574 5583 5588 5595 5602 5600 5605 5610 5612 5615 5615 5619 5617 5615 5618 5614 5616 5616 5615 5619 5618 5620 5620 5622 5623 5623 5624 5623 5622 5619 5617 5620 5617 5615 5621 5618
5533 5536 5542 5544 5551 5555 5559 5566 5572 5579 5582 5585 5588 5594 5602 5602 5603 5604 5605 5607 5607 5608 5608 5608 5607 5612 5612 5614 5616 5617 5619 5617 5617 5616 5615 5613 5612 5614 5615 5610 5608 5608 5604
5524 5530 5536 5542 5545 5547 5553 5557 5564 5563 5567 5573 5578 5587 5584 5592 5592 5594 5598 5600 5600 5602 5601 5605 5604 5606 5607 5607 5607 5607 5607 5606 5607 5609 5607 5604 5606 5605 5605 5605 5601 5595 5598
5516 5521 5528 5531 5537 5543 5549 5550 5552 5554 5559 5561 5565 5570 5575 5580 5584 5587 5586 5587 5591 5595 5595 5593 5593 5596 5599 5601 5598 5598 5598 5598 5600 5603 5599 5598 5599 5601 5595 5592 5593 5593 5590
5512 5518 5524 5528 5533 5538 5543 5546 5550 5552 5554 5556 5560 5561 5562 5568 5577 5580 5578 5581 5583 5586 5588 5590 5589 5592 5596 5598 5594 5594 5592 5591 5593 5593 5592 5591 5593 5593 5591 5586 5585 5585 5580
5513 5516 5522 5526 5533 5537 5540 5543 5546 5546 5549 5548 5549 5552 5555 5559 5566 5566 5567 5571 5573 5573 5574 5577 5577 5579 5582 5583 5585 5586 5585 5585 5584 5587 5587 5587 5585 5588 5588 5581 5583 5576 5573
5518 5522 5526 5528 5529 5530 5533 5536 5540 5542 5544 5545 5547 5549 5548 5549 5556 5559 5562 5561 5559 5561 5562 5565 5566 5568 5570 5573 5575 5575 5576 5574 5576 5579 5581 5584 5582 5579 5577 5579 5574 5568 5567
5520 5521 5521 5523 5525 5526 5528 5530 5532 5535 5539 5543 5542 5542 5543 5542 5541 5542 5547 5548 5548 5550 5554 5553 5553 5556 5559 5558 5566 5567 5565 5568 5569 5570 5571 5575 5573 5572 5570 5569 5565 5561 5558
5520 5518 5515 5515 5518 5521 5523 5525 5526 5528 5529 5528 5530 5531 5531 5532 5533 5537 5536 5536 5537 5537 5539 5540 5543 5549 5548 5547 5549 5554 5557 5559 5560 5562 5566 5566 5568 5566 5563 5560 5555 5552 5548
5518 5519 5514 5515 5517 5518 5517 5517 5521 5524 5523 5524 5525 5523 5524 5527 5530 5524 5524 5527 5529 5527 5527 5528 5531 5536 5538 5539 5540 5539 5544 5544 5545 5550 5551 5552 5553 5553 5551 5549 5546 5541 5536
5518 5514 5516 5514 5512 5511 5512 5512 5511 5512 5514 5515 5514 5513 5514 5512 5512 5513 5514 5510 5508 5508 5508 5509 5512 5513 5516 5520 5523 5527 5528 5533 5532 5534 5535 5537 5537 5535 5538 5536 5536 5533 5529
5515 5512 5510 5507 5500 5503 5504 5502 5499 5501 5498 5501 5501 5498 5498 5496 5495 5495 5495 5495 5491 5488 5489 5490 5492 5493 5494 5498 5502 5505 5509 5513 5515 5517 5517 5518 5521 5522 5521 5524 5526 5522 5521
5510 5504 5501 5500 5501 5499 5498 5495 5492 5488 5488 5485 5483 5479 5474 5471 5468 5467 5468 5468 5469 5471 5469 5468 5469 5471 5475 5478 5480 5484 5489 5492 5496 5499 5498 5499 5500 5503 5506 5508 5506 5507 5509
5501 5497 5494 5492 5490 5489 5488 5483 5478 5474 5472 5469 5464 5459 5456 5450 5442 5440 5437 5437 5437 5438 5439 5442 5444 5446 5450 5455 5458 5462 5465 5472 5475 5479 5481 5481 5483 5485 5487 5488 5488 5488 5491
5502 5499 5496 5494 5489 5485 5480 5474 5469 5464 5462 5457 5451 5444 5436 5428 5420 5415 5414 5413 5411 5413 5415 5417 5419 5422 5426 5430 5436 5442 5446 5451 5455 5458 5465 5467 5467 5467 5469 5468 5469 5472 5469
5499 5495 5489 5483 5479 5476 5471 5465 5459 5454 5450 5445 5436 5427 5417 5404 5395 5390 5385 5383 5384 5386 5388 5392 5395 5397 5401 5406 5412 5417 5425 5430 5436 5441 5445 5448 5452 5454 5455 5458 5459 5460 5454
5491 5486 5477 5472 5466 5461 5456 5451 5445 5439 5431 5421 5412 5399 5384 5376 5370 5363 5358 5354 5349 5346 5346 5352 5361 5369 5374 5378 5383 5389 5396 5406 5414 5421 5427 5434 5437 5441 5444 5447 5449 5444 5447
5477 5472 5465 5459 5452 5447 5441 5433 5426 5417 5409 5396 5384 5369 5358 5347 5335 5325 5320 5316 5313 5310 5313 5315 5319 5327 5333 5341 5350 5361 5370 5378 5387 5396 5405 5413 5420 5426 5430 5435 5436 5434 5435
5465 5459 5452 5444 5437 5431 5423 5412 5404 5395 5383 5369 5353 5339 5326 5321 5315 5304 5295 5289 5286 5283 5286 5286 5290 5296 5302 5306 5310 5320 5331 5342 5355 5368 5379 5390 5401 5408 5415 5419 5424 5422 5424
5451 5444 5435 5427 5419 5411 5402 5392 5383 5371 5357 5341 5328 5316 5305 5295 5289 5283 5277 5274 5268 5261 5262 5263 5265 5271 5278 5282 5289 5297 5306 5314 5324 5335 5348 5361 5372 5383 5392 5399 5405 5409 5410
5438 5429 5420 5410 5402 5393 5383 5372 5362 5349 5334 5321 5309 5297 5288 5278 5271 5268 5270 5261 5258 5255 5251 5248 5249 5254 5260 5268 5272 5278 5285 5294 5301 5313 5325 5336 5346 5357 5367 5376 5383 5389 5394